"Pseudo-MPEC" for JKq002

Created 2024 May 1 14:22:09 UT using Find_Orb

Click here for an explanation of pseudo-MPECs

 
 Astrometry: 
     JKq002  1C2024 04 18^c3*Z,RnWCkA1/QZ#X`T_'l/8o%7Z=TnC8fWDrL;qwLZO`]aGl!(W84
     JKq002 *1C2024 04 18^0A-i2g,g5)%!:Jsfh8#orRU0no+:YGH8Astrometryh.Y$k_Y+cW84
     JKq002  1C2024 04 18-LiOlD6yFmVauAcw4R_m0*,C5oP;^Y+JJ*$JQ[MmvCha?,9$S#.:W84
     JKq002  1C2024 04 18FwcQmH1-5Predacted;7n!hO(5KK#C2v)%]\bQ)_:4,y3I4c:(\1W84
     JKq002  1C2024 04 18q7NZ8JdclickrJ!TfR7Ll%2c$E2mcMO[/a\[xb/2TZP^+[K7LQ^RW84
     JKq002  !C2024 04 20cG0/Y#L,-here-pniQF+:X:tc@3nU^,(ij4R7x;pgW/u'W2#JL5dW84
     JKq002  !C2024 04 20Gx^Zm:rSvaCd9Zb/*v;MKB^jT;n'Q2()pbPd4):u$h`AwE_N`gy)W84
     JKq002  !C2024 04 20KC7A7rrIUt,8P5S%p1nVREUlsYsy^j%.cQ1c-_for9x0(Q6x^/o)W84
     JKq002  !C2024 04 20a#ZtP3XF$8Tgi@PP%0C#A.1XKoAtR`[U@/_.A,2Y:y#Z)S`nQ=iWW84
     JKq002  !C2024 04 20L5wIWq!=,17;pE6V1pKdM_HZy1=_Bi92@bik=`wNQlyQ(/R4'%tOW84
     JKq002  !C2024 04 20:sEKj*HYwZy_#DV=A_ng8yJ!6w\dLP7KU(/#a,];E`9!W[:R%LTuW84
     JKq002  !C2024 04 20)jr?.xoEIJMX(ie^=ws]23c5fC;tx7=L5fq9kyKshD8arWZVjnsYW84
     JKq002  !C2024 04 204pN.5MLDxo1I.VH4OjXAJ?:(TJLHw+6nYD]`Jc+HXKALN/UgvC`jW84
     JKq002  ~C2024 04 28K::wl\R`;PC`aHWN9)H^@iZc*%explanationhD??;e!mKqDHsD.W84
     JKq002  ~C2024 04 284G'kOttQCXKflipqWokw00x#\o!^BGV!N!Pu'E-RfTA\%SQJPa[(W84
     JKq002  ~C2024 04 28?qRtUNtV_u^`%a6,`w9LQZ/1g:5=VpOA,IQZx-?slZySp_9mxfy3W84
     JKq002  ~C2024 04 28OdCyrypr(7XRh8Pv2#BlVu4/:TbM]LN'LFZBrc3P;VBE,THN%Iu7W84

Station data:
(W84) Cerro Tololo-DECam  (S30.169594 W70.806420)  Chile.  Observers D.
   Trilling, F. Valdes, T. Linder. Measurer S. Deen. 4.0-m reflector + CCD.

Orbital elements:  JKq002
   Perihelion 2024 May 5.40708 +/- 0.128 TT =  9:46:11 (JD 2460435.90708)
Epoch 2024 Apr 28.0 TT = JDT 2460428.5   Earth MOID: 0.3850   Ma: 0.0129
M 358.57086463 +/- 0.12             (J2000 ecliptic)             AutoNEOCP
n   0.19294180 +/- 0.0194           Peri.  222.22495 +/- 0.07
a   2.96609566 +/- 0.199            Node    92.18488 +/- 0.28
e   0.5447917 +/- 0.0279            Incl.   17.17223 +/- 0.012
P   5.11                   H 18.95  G  0.15   U 10.1
q 1.35019112 +/- 0.0079    Q 4.58200020 +/- 0.391
From 17 observations 2024 Apr. 18-28; mean residual 0".18
Residuals in arcseconds: 
240418 W84  .07+  .06+    240420 W84  .09+  .07-    240420 W84  .14-  .10-    
240418 W84  .07+  .06+    240420 W84  .07+  .07-    240428 W84  .48-  .05+    
240418 W84  .04-  .06-    240420 W84  .01-  .02+    240428 W84  .43+  .16+    
240418 W84  .03+  .04-    240420 W84  .08+  .02+    240428 W84  .12+  .39+    
240418 W84  .06-  .04+    240420 W84  .04-  .04-    240428 W84  .08-  .59-    
240420 W84  .15+  .13+    240420 W84  .20-  .11+    

Ephemerides (geocentric):
Date (UTC) HH   RA             Dec           delta  r     elong  mag " sig PA
---- --------  ------------   ------------  ------ ------ -----  --- --------
2024 05 01 14  23 28 58.190   -12 49 07.39  1.6686 1.3508  54.0 22.2 .890  35
2024 05 01 15  23 29 06.979   -12 48 37.51  1.6685 1.3508  54.0 22.2 .909  35
2024 05 01 16  23 29 15.767   -12 48 07.62  1.6683 1.3508  54.0 22.2 .928  35
2024 05 01 17  23 29 24.554   -12 47 37.72  1.6682 1.3508  54.1 22.2 .947  36
2024 05 01 18  23 29 33.340   -12 47 07.81  1.6681 1.3508  54.1 22.2 .967  36
2024 05 01 19  23 29 42.125   -12 46 37.90  1.6680 1.3508  54.1 22.2 .987  36
2024 05 01 20  23 29 50.908   -12 46 07.98  1.6679 1.3508  54.1 22.2 1.01  36
2024 05 01 21  23 29 59.691   -12 45 38.05  1.6677 1.3507  54.1 22.2 1.03  36
2024 05 01 22  23 30 08.473   -12 45 08.11  1.6676 1.3507  54.1 22.2 1.05  37
2024 05 01 23  23 30 17.253   -12 44 38.16  1.6675 1.3507  54.1 22.2 1.07  37
2024 05 02 00  23 30 26.033   -12 44 08.21  1.6674 1.3507  54.1 22.2 1.09  37
2024 05 02 01  23 30 34.811   -12 43 38.25  1.6673 1.3507  54.1 22.2 1.11  37
2024 05 02 02  23 30 43.589   -12 43 08.28  1.6671 1.3507  54.1 22.2 1.13  37
2024 05 02 03  23 30 52.365   -12 42 38.31  1.6670 1.3507  54.1 22.2 1.15  37
2024 05 02 04  23 31 01.140   -12 42 08.32  1.6669 1.3507  54.1 22.2 1.17  38
2024 05 02 05  23 31 09.914   -12 41 38.33  1.6668 1.3506  54.1 22.2 1.19  38
2024 05 02 06  23 31 18.687   -12 41 08.33  1.6667 1.3506  54.1 22.2 1.22  38
2024 05 02 07  23 31 27.459   -12 40 38.33  1.6666 1.3506  54.1 22.2 1.24  38
2024 05 02 08  23 31 36.230   -12 40 08.32  1.6664 1.3506  54.1 22.2 1.26  38
2024 05 02 09  23 31 45.000   -12 39 38.30  1.6663 1.3506  54.1 22.2 1.28  38
2024 05 02 10  23 31 53.768   -12 39 08.27  1.6662 1.3506  54.1 22.2 1.30  39
2024 05 02 11  23 32 02.536   -12 38 38.23  1.6661 1.3506  54.1 22.2 1.33  39
2024 05 02 12  23 32 11.302   -12 38 08.19  1.6660 1.3506  54.1 22.2 1.35  39
2024 05 02 13  23 32 20.068   -12 37 38.14  1.6659 1.3506  54.1 22.2 1.37  39
2024 05 02 14  23 32 28.832   -12 37 08.08  1.6657 1.3505  54.1 22.2 1.40  39
2024 05 02 15  23 32 37.595   -12 36 38.02  1.6656 1.3505  54.2 22.2 1.42  39
2024 05 02 16  23 32 46.358   -12 36 07.95  1.6655 1.3505  54.2 22.2 1.44  39
2024 05 02 17  23 32 55.119   -12 35 37.87  1.6654 1.3505  54.2 22.2 1.47  39
2024 05 02 18  23 33 03.879   -12 35 07.78  1.6653 1.3505  54.2 22.2 1.49  40
2024 05 02 19  23 33 12.637   -12 34 37.69  1.6652 1.3505  54.2 22.2 1.52  40
2024 05 02 20  23 33 21.395   -12 34 07.59  1.6650 1.3505  54.2 22.2 1.54  40
2024 05 02 21  23 33 30.152   -12 33 37.48  1.6649 1.3505  54.2 22.2 1.56  40
2024 05 02 22  23 33 38.907   -12 33 07.37  1.6648 1.3505  54.2 22.2 1.59  40
2024 05 02 23  23 33 47.662   -12 32 37.24  1.6647 1.3505  54.2 22.2 1.61  40
2024 05 03 00  23 33 56.415   -12 32 07.12  1.6646 1.3504  54.2 22.2 1.64  40
2024 05 03 01  23 34 05.167   -12 31 36.98  1.6645 1.3504  54.2 22.2 1.67  41
2024 05 03 02  23 34 13.918   -12 31 06.84  1.6644 1.3504  54.2 22.2 1.69  41
2024 05 03 03  23 34 22.668   -12 30 36.69  1.6642 1.3504  54.2 22.2 1.72  41
2024 05 03 04  23 34 31.417   -12 30 06.53  1.6641 1.3504  54.2 22.2 1.74  41
2024 05 03 05  23 34 40.165   -12 29 36.37  1.6640 1.3504  54.2 22.2 1.77  41
2024 05 03 06  23 34 48.912   -12 29 06.20  1.6639 1.3504  54.2 22.2 1.80  41
2024 05 03 07  23 34 57.657   -12 28 36.02  1.6638 1.3504  54.2 22.2 1.82  41
2024 05 03 08  23 35 06.402   -12 28 05.84  1.6637 1.3504  54.2 22.2 1.85  41
2024 05 03 09  23 35 15.145   -12 27 35.65  1.6636 1.3504  54.2 22.2 1.88  41
2024 05 03 10  23 35 23.887   -12 27 05.45  1.6634 1.3504  54.2 22.2 1.90  42
2024 05 03 11  23 35 32.628   -12 26 35.25  1.6633 1.3504  54.2 22.2 1.93  42
2024 05 03 12  23 35 41.368   -12 26 05.04  1.6632 1.3504  54.3 22.2 1.96  42
2024 05 03 13  23 35 50.107   -12 25 34.82  1.6631 1.3503  54.3 22.2 1.99  42